Location: Pine Mountain Observatory
(43.7910°N, 120.9377°W)
Time: 22:45:09
(UTC-07:00)

Cosmos 1867 - Visible Passes

Search period start: 04 September 2015 00:00
Search period end: 14 September 2015 00:00
Orbit: 775 x 801 km, 65.0° (Epoch: 04 September)

Date Brightness Start Highest point End Pass type
(mag) Time Alt. Az. Time Alt. Az. Time Alt. Az.
04 Sep 5.4 04:00:16 10° NNW 04:05:05 31° NE 04:09:56 10° ESE visible
04 Sep 3.8 05:43:39 10° NW 05:48:57 50° WSW 05:54:11 10° S visible
04 Sep 3.5 20:25:32 10° SSW 20:30:58 82° ESE 20:36:28 10° NE visible
04 Sep 6.0 22:11:04 10° W 22:15:17 22° NW 22:19:25 10° NNE visible
05 Sep 5.7 03:28:48 10° NNW 03:33:15 25° NE 03:37:46 10° E visible
05 Sep 3.5 05:11:56 10° NW 05:17:23 68° WSW 05:22:47 10° SSE visible
05 Sep 3.6 19:54:02 10° SSW 19:59:23 62° ESE 20:04:46 10° NE visible
05 Sep 5.7 21:38:48 10° W 21:43:25 27° NW 21:47:59 10° NNE visible
06 Sep 6.0 02:57:22 10° NNW 03:01:22 21° NE 03:05:28 10° E visible
06 Sep 3.5 04:40:16 10° NW 04:45:46 89° WSW 04:51:15 10° SSE visible
06 Sep 5.4 21:06:41 10° WSW 21:11:35 33° NW 21:16:31 10° NNE visible
06 Sep 6.7 22:55:56 10° NNW 22:57:00 10° NNW 22:57:56 10° N visible
07 Sep 6.2 02:25:59 10° N 02:29:28 17° NNE 02:33:03 10° ENE visible
07 Sep 3.8 04:08:39 10° NNW 04:14:08 70° NE 04:19:34 10° SE visible
07 Sep 4.8 05:53:26 10° WNW 05:57:14 19° WSW 06:00:52 10° SSW visible
07 Sep 4.9 20:34:39 10° WSW 20:39:49 42° NW 20:45:00 10° NNE visible
07 Sep 6.6 22:22:45 10° NW 22:24:59 12° NNW 22:27:05 10° N visible
08 Sep 6.4 01:54:40 10° N 01:57:31 14° NNE 02:00:28 10° ENE visible
08 Sep 4.3 03:37:04 10° NNW 03:42:26 53° NE 03:47:47 10° SE visible
08 Sep 4.5 05:21:17 10° WNW 05:25:46 26° WSW 05:30:07 10° SSW visible
08 Sep 4.5 20:02:45 10° SW 20:08:05 54° NW 20:13:28 10° NNE visible
08 Sep 6.4 21:50:00 10° WNW 21:53:00 14° NNW 21:55:53 10° N visible
09 Sep 6.5 01:23:29 10° N 01:25:31 12° NNE 01:27:42 10° NE visible
09 Sep 4.7 03:05:32 10° NNW 03:10:42 41° NE 03:15:52 10° ESE visible
09 Sep 4.1 04:49:19 10° NW 04:54:16 35° WSW 04:59:07 10° S visible
09 Sep 6.3 21:17:26 10° WNW 21:21:03 17° NNW 21:24:33 10° N visible
10 Sep 6.5 00:52:42 10° N 00:53:30 10° NNE 00:54:26 10° NNE visible
10 Sep 5.2 02:34:02 10° NNW 02:38:08 31° NNE 02:38:08 31° NNE visible
10 Sep 5.5 04:17:29 10° NW 04:18:36 16° NW 04:18:36 16° NW visible
10 Sep 6.1 20:45:01 10° W 20:49:08 21° NW 20:53:10 10° NNE visible
11 Sep 5.7 02:02:34 10° NNW 02:05:25 22° NNE 02:05:25 22° NNE visible
11 Sep 6.0 03:45:45 10° NW 03:45:58 11° NW 03:45:58 11° NW visible
11 Sep 5.8 20:12:43 10° W 20:17:15 25° NW 20:21:44 10° NNE visible
12 Sep 6.0 01:31:07 10° NNW 01:33:27 18° N 01:33:27 18° N visible
12 Sep 5.5 19:40:34 10° WSW 19:45:26 31° NW 19:50:17 10° NNE visible
12 Sep 6.6 21:30:19 10° NNW 21:30:53 10° NNW 21:31:20 10° NNW visible
13 Sep 6.2 00:59:43 10° N 01:01:48 16° NNE 01:01:48 16° NNE visible
13 Sep 6.4 20:56:49 10° NW 20:58:52 12° NNW 21:00:46 10° N visible
